Time,TemperatureF,DewpointF,PressureIn,WindDirection,WindDirectionDegrees,WindSpeedMPH,WindSpeedGustMPH,Humidity,HourlyPrecipIn,Conditions,Clouds,dailyrainin,SoftwareType,DateUTC
2013-10-11 00:00:00,49.6,41.3,29.67,SW,225,0.0,0.0,73,0.00,,,-99.99,VWS V12.07,2013-10-11 05:00:00,
2013-10-11 00:05:00,49.6,41.3,29.67,SW,225,0.0,0.0,73,0.00,,,-99.99,VWS V12.07,2013-10-11 05:05:00,
2013-10-11 00:15:00,49.1,40.8,29.66,SW,225,0.0,0.0,73,0.00,,,-99.99,VWS V12.07,2013-10-11 05:15:00,
2013-10-11 00:20:00,49.1,40.8,29.66,SW,225,0.0,0.0,73,0.00,,,-99.99,VWS V12.07,2013-10-11 05:20:00,
2013-10-11 00:25:00,48.9,41.0,29.66,SW,225,0.0,0.0,74,0.00,,,-99.99,VWS V12.07,2013-10-11 05:25:00,
2013-10-11 00:30:00,48.9,41.0,29.66,SW,225,0.0,0.0,74,0.00,,,-99.99,VWS V12.07,2013-10-11 05:30:00,
2013-10-11 00:35:00,48.7,40.8,29.66,SW,225,0.0,0.0,74,0.00,,,-99.99,VWS V12.07,2013-10-11 05:35:00,
2013-10-11 00:40:00,48.5,40.6,29.66,SW,225,0.0,0.0,74,0.00,,,-99.99,VWS V12.07,2013-10-11 05:40:00,
2013-10-11 00:45:00,48.5,41.0,29.66,SW,225,0.0,0.0,75,0.00,,,-99.99,VWS V12.07,2013-10-11 05:45:00,
2013-10-11 00:50:00,48.5,41.0,29.66,SW,225,0.0,0.0,75,0.00,,,-99.99,VWS V12.07,2013-10-11 05:50:00,
2013-10-11 00:55:00,48.3,40.8,29.66,SW,225,0.0,0.0,75,0.00,,,-99.99,VWS V12.07,2013-10-11 05:55:00,
2013-10-11 01:00:00,48.3,40.8,29.66,SW,225,0.0,0.0,75,0.00,,,-99.99,VWS V12.07,2013-10-11 06:00:00,
2013-10-11 01:05:00,48.2,40.7,29.66,SW,225,0.0,0.0,75,0.00,,,-99.99,VWS V12.07,2013-10-11 06:05:00,
2013-10-11 01:10:00,48.2,41.0,29.65,SW,225,0.0,0.0,76,0.00,,,-99.99,VWS V12.07,2013-10-11 06:10:00,
2013-10-11 01:15:00,48.0,40.8,29.66,SW,225,0.0,0.0,76,0.00,,,-99.99,VWS V12.07,2013-10-11 06:15:00,
2013-10-11 01:20:00,48.0,40.8,29.65,SW,225,0.0,0.0,76,0.00,,,-99.99,VWS V12.07,2013-10-11 06:20:00,
2013-10-11 01:25:00,48.0,40.8,29.65,SW,225,0.0,0.0,76,0.00,,,-99.99,VWS V12.07,2013-10-11 06:25:00,
2013-10-11 01:30:00,48.0,40.8,29.65,SW,225,0.0,0.0,76,0.00,,,-99.99,VWS V12.07,2013-10-11 06:30:00,
2013-10-11 01:35:00,48.0,41.2,29.65,SW,225,0.0,0.0,77,0.00,,,-99.99,VWS V12.07,2013-10-11 06:35:00,
2013-10-11 01:40:00,48.0,41.2,29.65,SW,225,0.0,0.0,77,0.00,,,-99.99,VWS V12.07,2013-10-11 06:40:00,
2013-10-11 01:45:00,48.0,41.2,29.65,SW,225,0.0,0.0,77,0.00,,,-99.99,VWS V12.07,2013-10-11 06:45:00,
2013-10-11 01:50:00,48.0,41.2,29.65,SW,225,0.0,0.0,77,0.00,,,-99.99,VWS V12.07,2013-10-11 06:50:00,
2013-10-11 01:55:00,47.8,41.0,29.65,SW,225,0.0,0.0,77,0.00,,,-99.99,VWS V12.07,2013-10-11 06:55:00,
2013-10-11 02:00:00,47.8,41.0,29.65,SW,225,0.0,0.0,77,0.00,,,-99.99,VWS V12.07,2013-10-11 07:00:00,
2013-10-11 02:05:00,47.8,41.0,29.65,SW,225,0.0,0.0,77,0.00,,,-99.99,VWS V12.07,2013-10-11 07:05:00,
2013-10-11 02:10:00,47.6,40.8,29.65,SW,225,0.0,0.0,77,0.00,,,-99.99,VWS V12.07,2013-10-11 07:10:00,
2013-10-11 02:15:00,47.6,40.8,29.65,SW,225,0.0,0.0,77,0.00,,,-99.99,VWS V12.07,2013-10-11 07:15:00,
2013-10-11 02:20:00,47.4,40.6,29.65,SW,225,0.0,0.0,77,0.00,,,-99.99,VWS V12.07,2013-10-11 07:20:00,
2013-10-11 02:25:00,47.4,40.6,29.66,SW,225,0.0,0.0,77,0.00,,,-99.99,VWS V12.07,2013-10-11 07:25:00,
2013-10-11 02:30:00,47.3,40.5,29.66,SW,225,0.0,0.0,77,0.00,,,-99.99,VWS V12.07,2013-10-11 07:30:00,
2013-10-11 02:35:00,47.3,40.8,29.65,SW,225,0.0,0.0,78,0.00,,,-99.99,VWS V12.07,2013-10-11 07:35:00,
2013-10-11 02:40:00,47.3,40.8,29.65,SW,225,0.0,0.0,78,0.00,,,-99.99,VWS V12.07,2013-10-11 07:40:00,
2013-10-11 02:45:00,47.3,40.8,29.65,SW,225,0.0,0.0,78,0.00,,,-99.99,VWS V12.07,2013-10-11 07:45:00,
2013-10-11 02:50:00,47.3,40.8,29.65,SW,225,0.0,0.0,78,0.00,,,-99.99,VWS V12.07,2013-10-11 07:50:00,
2013-10-11 02:55:00,47.4,41.2,29.65,SW,225,0.0,0.0,79,0.00,,,-99.99,VWS V12.07,2013-10-11 07:55:00,
2013-10-11 03:00:00,47.3,41.1,29.65,SW,225,0.0,0.0,79,0.00,,,-99.99,VWS V12.07,2013-10-11 08:00:00,
2013-10-11 03:05:00,47.4,41.2,29.65,SW,225,0.0,0.0,79,0.00,,,-99.99,VWS V12.07,2013-10-11 08:05:00,
2013-10-11 03:10:00,47.4,41.2,29.65,SW,225,0.0,0.0,79,0.00,,,-99.99,VWS V12.07,2013-10-11 08:10:00,
2013-10-11 03:15:00,47.4,41.2,29.65,SW,225,0.0,0.0,79,0.00,,,-99.99,VWS V12.07,2013-10-11 08:15:00,
2013-10-11 03:20:00,47.4,41.2,29.65,SW,225,0.0,0.0,79,0.00,,,-99.99,VWS V12.07,2013-10-11 08:20:00,
2013-10-11 03:25:00,47.4,41.2,29.65,SW,225,0.0,0.0,79,0.00,,,-99.99,VWS V12.07,2013-10-11 08:25:00,
2013-10-11 03:30:00,47.4,41.2,29.65,SW,225,0.0,0.0,79,0.00,,,-99.99,VWS V12.07,2013-10-11 08:30:00,
2013-10-11 03:35:00,47.4,41.2,29.65,SW,225,0.0,0.0,79,0.00,,,-99.99,VWS V12.07,2013-10-11 08:35:00,
2013-10-11 03:40:00,47.4,41.2,29.65,SW,225,0.0,0.0,79,0.00,,,-99.99,VWS V12.07,2013-10-11 08:40:00,
2013-10-11 03:45:00,47.4,41.2,29.66,SW,225,0.0,0.0,79,0.00,,,-99.99,VWS V12.07,2013-10-11 08:45:00,
2013-10-11 03:50:00,47.4,41.2,29.66,SW,225,0.0,0.0,79,0.00,,,-99.99,VWS V12.07,2013-10-11 08:50:00,
2013-10-11 03:55:00,47.4,41.2,29.66,SW,225,0.0,0.0,79,0.00,,,-99.99,VWS V12.07,2013-10-11 08:55:00,
2013-10-11 04:00:00,47.4,41.2,29.66,SW,225,0.0,0.0,79,0.00,,,-99.99,VWS V12.07,2013-10-11 09:00:00,
2013-10-11 04:05:00,47.4,41.2,29.66,SW,225,0.0,0.0,79,0.00,,,-99.99,VWS V12.07,2013-10-11 09:05:00,
2013-10-11 04:10:00,47.3,41.1,29.67,SW,225,0.0,0.0,79,0.00,,,-99.99,VWS V12.07,2013-10-11 09:10:00,
2013-10-11 04:15:00,47.3,41.1,29.67,SW,225,0.0,0.0,79,0.00,,,-99.99,VWS V12.07,2013-10-11 09:15:00,
2013-10-11 04:20:00,47.1,40.9,29.67,SW,225,0.0,0.0,79,0.00,,,-99.99,VWS V12.07,2013-10-11 09:20:00,
2013-10-11 04:25:00,47.1,41.3,29.67,SW,225,0.0,0.0,80,0.00,,,-99.99,VWS V12.07,2013-10-11 09:25:00,
2013-10-11 04:30:00,47.1,41.3,29.67,SW,225,0.0,0.0,80,0.00,,,-99.99,VWS V12.07,2013-10-11 09:30:00,
2013-10-11 04:35:00,47.1,41.3,29.67,SW,225,0.0,0.0,80,0.00,,,-99.99,VWS V12.07,2013-10-11 09:35:00,
2013-10-11 04:40:00,47.1,41.3,29.67,SW,225,0.0,0.0,80,0.00,,,-99.99,VWS V12.07,2013-10-11 09:40:00,
2013-10-11 04:45:00,47.1,41.3,29.67,SW,225,0.0,0.0,80,0.00,,,-99.99,VWS V12.07,2013-10-11 09:45:00,
2013-10-11 04:50:00,47.1,41.3,29.67,SW,225,0.0,0.0,80,0.00,,,-99.99,VWS V12.07,2013-10-11 09:50:00,
2013-10-11 04:55:00,46.9,41.1,29.66,SW,225,0.0,0.0,80,0.00,,,-99.99,VWS V12.07,2013-10-11 09:55:00,
2013-10-11 05:00:00,46.9,41.1,29.66,SW,225,0.0,0.0,80,0.00,,,-99.99,VWS V12.07,2013-10-11 10:00:00,
2013-10-11 05:05:00,46.9,41.1,29.66,SW,225,0.0,0.0,80,0.00,,,-99.99,VWS V12.07,2013-10-11 10:05:00,
2013-10-11 05:10:00,46.7,40.9,29.66,SW,225,0.0,0.0,80,0.00,,,-99.99,VWS V12.07,2013-10-11 10:10:00,
2013-10-11 05:15:00,46.7,40.9,29.66,SW,225,0.0,0.0,80,0.00,,,-99.99,VWS V12.07,2013-10-11 10:15:00,
2013-10-11 05:20:00,46.7,40.9,29.66,SW,225,0.0,0.0,80,0.00,,,-99.99,VWS V12.07,2013-10-11 10:20:00,
2013-10-11 05:25:00,46.7,40.9,29.66,SW,225,0.0,0.0,80,0.00,,,-99.99,VWS V12.07,2013-10-11 10:25:00,
2013-10-11 05:30:00,46.5,40.7,29.66,SW,225,0.0,0.0,80,0.00,,,-99.99,VWS V12.07,2013-10-11 10:30:00,
2013-10-11 05:35:00,46.7,41.2,29.66,SW,225,0.0,0.0,81,0.00,,,-99.99,VWS V12.07,2013-10-11 10:35:00,
2013-10-11 05:40:00,46.5,41.0,29.67,SW,225,0.0,0.0,81,0.00,,,-99.99,VWS V12.07,2013-10-11 10:40:00,
2013-10-11 05:45:00,46.5,41.0,29.66,SW,225,0.0,0.0,81,0.00,,,-99.99,VWS V12.07,2013-10-11 10:45:00,
2013-10-11 05:50:00,46.5,41.0,29.67,SW,225,0.0,0.0,81,0.00,,,-99.99,VWS V12.07,2013-10-11 10:50:00,
2013-10-11 05:55:00,46.5,41.0,29.67,SW,225,0.0,0.0,81,0.00,,,-99.99,VWS V12.07,2013-10-11 10:55:00,
2013-10-11 06:00:00,46.4,40.9,29.67,SW,225,0.0,0.0,81,0.00,,,-99.99,VWS V12.07,2013-10-11 11:00:00,
2013-10-11 06:05:00,46.2,40.7,29.66,SW,225,0.0,0.0,81,0.00,,,-99.99,VWS V12.07,2013-10-11 11:05:00,
2013-10-11 06:10:00,46.2,40.7,29.66,SW,225,0.0,0.0,81,0.00,,,-99.99,VWS V12.07,2013-10-11 11:10:00,
2013-10-11 06:15:00,46.2,40.7,29.66,SW,225,0.0,0.0,81,0.00,,,-99.99,VWS V12.07,2013-10-11 11:15:00,
2013-10-11 06:20:00,46.0,40.5,29.66,SW,225,0.0,0.0,81,0.00,,,-99.99,VWS V12.07,2013-10-11 11:20:00,
2013-10-11 06:25:00,46.0,40.5,29.66,SW,225,0.0,0.0,81,0.00,,,-99.99,VWS V12.07,2013-10-11 11:25:00,
2013-10-11 06:30:00,46.0,40.5,29.66,SW,225,0.0,0.0,81,0.00,,,-99.99,VWS V12.07,2013-10-11 11:30:00,
2013-10-11 06:35:00,46.0,40.5,29.66,SW,225,0.0,0.0,81,0.00,,,-99.99,VWS V12.07,2013-10-11 11:35:00,
2013-10-11 06:40:00,45.8,40.6,29.66,SW,225,0.0,0.0,82,0.00,,,-99.99,VWS V12.07,2013-10-11 11:40:00,
2013-10-11 06:45:00,45.8,40.6,29.66,SW,225,0.0,0.0,82,0.00,,,-99.99,VWS V12.07,2013-10-11 11:45:00,
2013-10-11 06:50:00,45.6,40.4,29.66,SW,225,0.0,0.0,82,0.00,,,-99.99,VWS V12.07,2013-10-11 11:50:00,
2013-10-11 06:55:00,45.6,40.4,29.66,SW,225,0.0,0.0,82,0.00,,,-99.99,VWS V12.07,2013-10-11 11:55:00,
2013-10-11 07:00:00,45.6,40.7,29.66,SW,225,0.0,0.0,83,0.00,,,-99.99,VWS V12.07,2013-10-11 12:00:00,
2013-10-11 07:05:00,45.6,40.7,29.65,SW,225,0.0,0.0,83,0.00,,,-99.99,VWS V12.07,2013-10-11 12:05:00,
2013-10-11 07:10:00,45.6,40.7,29.65,SW,225,0.0,0.0,83,0.00,,,-99.99,VWS V12.07,2013-10-11 12:10:00,
2013-10-11 07:15:00,45.6,40.7,29.65,SW,225,0.0,0.0,83,0.00,,,-99.99,VWS V12.07,2013-10-11 12:15:00,
2013-10-11 07:20:00,45.6,40.7,29.65,SW,225,0.0,0.0,83,0.00,,,-99.99,VWS V12.07,2013-10-11 12:20:00,
2013-10-11 07:25:00,45.8,40.9,29.65,SW,225,0.0,0.0,83,0.00,,,-99.99,VWS V12.07,2013-10-11 12:25:00,
2013-10-11 07:30:00,45.8,40.9,29.65,SW,225,0.0,0.0,83,0.00,,,-99.99,VWS V12.07,2013-10-11 12:30:00,
2013-10-11 07:35:00,46.0,41.1,29.65,SW,225,0.0,0.0,83,0.00,,,-99.99,VWS V12.07,2013-10-11 12:35:00,
2013-10-11 07:40:00,46.0,41.4,29.65,SW,225,0.0,0.0,84,0.00,,,-99.99,VWS V12.07,2013-10-11 12:40:00,
2013-10-11 07:45:00,46.2,41.6,29.65,SW,225,0.0,0.0,84,0.00,,,-99.99,VWS V12.07,2013-10-11 12:45:00,
2013-10-11 07:50:00,46.2,41.6,29.65,SW,225,0.0,0.0,84,0.00,,,-99.99,VWS V12.07,2013-10-11 12:50:00,
2013-10-11 07:55:00,46.5,42.2,29.65,NE,45,0.0,0.0,85,0.00,,,-99.99,VWS V12.07,2013-10-11 12:55:00,
2013-10-11 08:00:00,46.5,42.2,29.65,NE,45,0.0,0.0,85,0.00,,,-99.99,VWS V12.07,2013-10-11 13:00:00,
2013-10-11 08:05:00,46.7,42.4,29.65,NE,45,0.0,0.0,85,0.00,,,-99.99,VWS V12.07,2013-10-11 13:05:00,
2013-10-11 08:10:00,47.1,42.8,29.65,NE,45,0.0,0.0,85,0.00,,,-99.99,VWS V12.07,2013-10-11 13:10:00,
2013-10-11 08:15:00,47.3,43.0,29.65,NE,45,0.0,0.0,85,0.00,,,-99.99,VWS V12.07,2013-10-11 13:15:00,
2013-10-11 08:20:00,47.8,43.5,29.65,NE,45,0.0,0.0,85,0.00,,,-99.99,VWS V12.07,2013-10-11 13:20:00,
2013-10-11 08:25:00,48.0,44.0,29.65,NE,45,0.0,0.0,86,0.00,,,-99.99,VWS V12.07,2013-10-11 13:25:00,
2013-10-11 08:30:00,48.3,44.3,29.65,NE,45,0.0,0.0,86,0.00,,,-99.99,VWS V12.07,2013-10-11 13:30:00,
2013-10-11 08:35:00,48.7,44.7,29.65,ENE,68,0.0,0.0,86,0.00,,,-99.99,VWS V12.07,2013-10-11 13:35:00,
2013-10-11 08:40:00,49.2,45.2,29.65,SE,135,0.0,0.0,86,0.00,,,-99.99,VWS V12.07,2013-10-11 13:40:00,
2013-10-11 08:45:00,49.8,45.8,29.65,SE,135,0.0,0.0,86,0.00,,,-99.99,VWS V12.07,2013-10-11 13:45:00,
2013-10-11 08:50:00,50.3,46.3,29.65,SE,135,0.0,0.0,86,0.00,,,-99.99,VWS V12.07,2013-10-11 13:50:00,
2013-10-11 08:55:00,50.9,46.6,29.65,SSE,158,0.0,0.0,85,0.00,,,-99.99,VWS V12.07,2013-10-11 13:55:00,
2013-10-11 09:00:00,51.4,47.4,29.65,SSE,158,0.0,0.0,86,0.00,,,-99.99,VWS V12.07,2013-10-11 14:00:00,
2013-10-11 09:05:00,51.6,47.2,29.64,SE,135,0.0,0.0,85,0.00,,,-99.99,VWS V12.07,2013-10-11 14:05:00,
2013-10-11 09:10:00,51.9,47.5,29.64,ESE,112,0.0,0.0,85,0.00,,,-99.99,VWS V12.07,2013-10-11 14:10:00,
2013-10-11 09:15:00,52.1,47.4,29.64,SE,135,0.0,0.0,84,0.00,,,-99.99,VWS V12.07,2013-10-11 14:15:00,
2013-10-11 09:20:00,52.3,47.6,29.64,SE,135,0.0,0.0,84,0.00,,,-99.99,VWS V12.07,2013-10-11 14:20:00,
2013-10-11 09:25:00,52.5,47.5,29.64,ESE,112,0.0,0.0,83,0.00,,,-99.99,VWS V12.07,2013-10-11 14:25:00,
2013-10-11 09:30:00,52.7,47.7,29.65,ESE,112,0.0,0.0,83,0.00,,,-99.99,VWS V12.07,2013-10-11 14:30:00,
2013-10-11 09:35:00,52.8,47.8,29.65,ESE,112,0.0,0.0,83,0.00,,,-99.99,VWS V12.07,2013-10-11 14:35:00,
2013-10-11 09:40:00,53.2,48.2,29.65,ESE,112,0.0,0.0,83,0.00,,,-99.99,VWS V12.07,2013-10-11 14:40:00,
2013-10-11 09:45:00,53.4,48.4,29.65,ESE,112,0.0,0.0,83,0.00,,,-99.99,VWS V12.07,2013-10-11 14:45:00,
2013-10-11 09:50:00,53.7,48.7,29.65,ESE,112,0.0,0.0,83,0.00,,,-99.99,VWS V12.07,2013-10-11 14:50:00,
2013-10-11 09:55:00,54.1,49.1,29.65,ESE,112,0.0,0.0,83,0.00,,,-99.99,VWS V12.07,2013-10-11 14:55:00,
2013-10-11 10:00:00,54.6,49.5,29.65,ESE,112,0.0,0.0,83,0.00,,,-99.99,VWS V12.07,2013-10-11 15:00:00,
2013-10-11 10:05:00,55.0,49.6,29.65,ESE,112,0.0,0.0,82,0.00,,,-99.99,VWS V12.07,2013-10-11 15:05:00,
2013-10-11 10:10:00,55.4,50.0,29.65,ESE,112,0.0,0.0,82,0.00,,,-99.99,VWS V12.07,2013-10-11 15:10:00,
2013-10-11 10:15:00,55.7,50.3,29.65,ESE,112,0.0,0.0,82,0.00,,,-99.99,VWS V12.07,2013-10-11 15:15:00,
2013-10-11 10:20:00,56.1,50.7,29.65,ESE,112,0.0,0.0,82,0.00,,,-99.99,VWS V12.07,2013-10-11 15:20:00,
2013-10-11 10:25:00,56.4,51.0,29.65,ESE,112,0.0,0.0,82,0.00,,,-99.99,VWS V12.07,2013-10-11 15:25:00,
2013-10-11 10:30:00,57.0,51.2,29.65,ESE,112,0.0,0.0,81,0.00,,,-99.99,VWS V12.07,2013-10-11 15:30:00,
2013-10-11 10:35:00,57.3,51.5,29.65,ESE,112,0.0,0.0,81,0.00,,,-99.99,VWS V12.07,2013-10-11 15:35:00,
2013-10-11 10:40:00,57.7,51.9,29.65,ESE,112,0.0,0.0,81,0.00,,,-99.99,VWS V12.07,2013-10-11 15:40:00,
2013-10-11 10:45:00,57.9,51.8,29.65,ESE,112,0.0,0.0,80,0.00,,,-99.99,VWS V12.07,2013-10-11 15:45:00,
2013-10-11 10:50:00,58.2,52.1,29.65,ESE,112,0.0,0.0,80,0.00,,,-99.99,VWS V12.07,2013-10-11 15:50:00,
2013-10-11 10:55:00,58.8,52.7,29.65,ESE,112,0.0,0.0,80,0.00,,,-99.99,VWS V12.07,2013-10-11 15:55:00,
2013-10-11 11:00:00,59.0,52.8,29.65,ESE,112,0.0,0.0,80,0.00,,,-99.99,VWS V12.07,2013-10-11 16:00:00,
2013-10-11 11:05:00,59.7,53.2,29.65,ESE,112,0.0,0.0,79,0.00,,,-99.99,VWS V12.07,2013-10-11 16:05:00,
2013-10-11 11:10:00,60.4,53.5,29.64,ESE,112,0.0,0.0,78,0.00,,,-99.99,VWS V12.07,2013-10-11 16:10:00,
2013-10-11 11:15:00,60.8,53.9,29.64,ESE,112,0.0,0.0,78,0.00,,,-99.99,VWS V12.07,2013-10-11 16:15:00,
2013-10-11 11:20:00,61.1,54.2,29.64,ESE,112,0.0,0.0,78,0.00,,,-99.99,VWS V12.07,2013-10-11 16:20:00,
2013-10-11 11:25:00,61.5,54.2,29.64,ESE,112,0.0,0.0,77,0.00,,,-99.99,VWS V12.07,2013-10-11 16:25:00,
2013-10-11 11:30:00,61.8,54.5,29.64,ESE,112,0.0,0.0,77,0.00,,,-99.99,VWS V12.07,2013-10-11 16:30:00,
2013-10-11 11:35:00,62.4,55.1,29.64,ENE,68,0.0,0.0,77,0.00,,,-99.99,VWS V12.07,2013-10-11 16:35:00,
2013-10-11 11:40:00,62.9,55.2,29.64,South,180,2.9,6.4,76,0.00,,,-99.99,VWS V12.07,2013-10-11 16:40:00,
2013-10-11 11:45:00,63.3,55.2,29.63,SSW,202,0.0,6.4,75,0.00,,,-99.99,VWS V12.07,2013-10-11 16:45:00,
2013-10-11 11:50:00,63.6,55.2,29.63,South,180,0.0,0.0,74,0.00,,,-99.99,VWS V12.07,2013-10-11 16:50:00,
2013-10-11 11:55:00,64.2,55.8,29.63,South,180,0.0,0.0,74,0.00,,,-99.99,VWS V12.07,2013-10-11 16:55:00,
2013-10-11 12:00:00,64.5,55.7,29.63,South,180,0.0,0.0,73,0.00,,,-99.99,VWS V12.07,2013-10-11 17:00:00,
2013-10-11 12:05:00,64.7,55.9,29.63,South,180,0.0,0.0,73,0.00,,,-99.99,VWS V12.07,2013-10-11 17:05:00,
2013-10-11 12:10:00,64.9,55.7,29.63,SW,225,0.0,0.8,72,0.00,,,-99.99,VWS V12.07,2013-10-11 17:10:00,
2013-10-11 12:15:00,64.9,55.7,29.63,SW,225,0.0,0.8,72,0.00,,,-99.99,VWS V12.07,2013-10-11 17:15:00,
2013-10-11 12:20:00,64.9,55.7,29.63,SW,225,0.0,0.0,72,0.00,,,-99.99,VWS V12.07,2013-10-11 17:20:00,
2013-10-11 12:25:00,65.1,55.9,29.61,NE,45,0.0,0.0,72,0.00,,,-99.99,VWS V12.07,2013-10-11 17:25:00,
2013-10-11 12:30:00,65.4,55.8,29.61,NNW,338,0.0,0.0,71,0.00,,,-99.99,VWS V12.07,2013-10-11 17:30:00,
2013-10-11 12:35:00,66.0,56.3,29.61,ENE,68,0.0,1.3,71,0.00,,,-99.99,VWS V12.07,2013-10-11 17:35:00,
2013-10-11 12:40:00,66.3,56.2,29.61,NE,45,0.0,1.3,70,0.00,,,-99.99,VWS V12.07,2013-10-11 17:40:00,
2013-10-11 12:45:00,66.5,56.0,29.60,East,90,0.0,4.2,69,0.00,,,-99.99,VWS V12.07,2013-10-11 17:45:00,
2013-10-11 12:50:00,66.7,56.2,29.60,NNE,22,0.0,0.0,69,0.00,,,-99.99,VWS V12.07,2013-10-11 17:50:00,
2013-10-11 13:00:00,67.6,56.7,29.59,SSE,158,0.0,7.1,68,0.00,,,-99.99,VWS V12.07,2013-10-11 18:00:00,
2013-10-11 13:05:00,67.8,56.5,29.59,South,180,0.0,1.7,67,0.00,,,-99.99,VWS V12.07,2013-10-11 18:05:00,
2013-10-11 13:10:00,68.1,56.3,29.59,South,180,0.0,1.7,66,0.00,,,-99.99,VWS V12.07,2013-10-11 18:10:00,
2013-10-11 13:15:00,68.1,55.9,29.59,SW,225,2.9,2.9,65,0.00,,,-99.99,VWS V12.07,2013-10-11 18:15:00,
2013-10-11 13:20:00,68.5,56.3,29.59,SW,225,0.0,0.0,65,0.00,,,-99.99,VWS V12.07,2013-10-11 18:20:00,
2013-10-11 13:25:00,68.5,55.9,29.58,SSW,202,0.0,0.0,64,0.00,,,-99.99,VWS V12.07,2013-10-11 18:25:00,
2013-10-11 13:30:00,68.7,56.5,29.58,SSW,202,0.0,0.0,65,0.00,,,-99.99,VWS V12.07,2013-10-11 18:30:00,
2013-10-11 13:35:00,68.9,56.2,29.58,South,180,0.0,0.0,64,0.00,,,-99.99,VWS V12.07,2013-10-11 18:35:00,
2013-10-11 13:40:00,69.0,55.9,29.57,South,180,0.0,0.0,63,0.00,,,-99.99,VWS V12.07,2013-10-11 18:40:00,
2013-10-11 13:45:00,69.0,55.9,29.57,South,180,0.0,0.0,63,0.00,,,-99.99,VWS V12.07,2013-10-11 18:45:00,
2013-10-11 13:50:00,69.4,55.8,29.56,SSW,202,0.0,0.0,62,0.00,,,-99.99,VWS V12.07,2013-10-11 18:50:00,
2013-10-11 13:55:00,69.6,56.0,29.55,West,270,0.0,0.0,62,0.00,,,-99.99,VWS V12.07,2013-10-11 18:55:00,
2013-10-11 14:00:00,69.6,56.0,29.55,WNW,292,0.0,0.0,62,0.00,,,-99.99,VWS V12.07,2013-10-11 19:00:00,
2013-10-11 14:05:00,69.6,55.6,29.55,SSW,202,0.0,8.9,61,0.00,,,-99.99,VWS V12.07,2013-10-11 19:05:00,
2013-10-11 14:10:00,69.6,54.7,29.55,SSW,202,0.0,8.9,59,0.00,,,-99.99,VWS V12.07,2013-10-11 19:10:00,
2013-10-11 14:15:00,69.4,54.9,29.55,SSW,202,0.0,8.9,60,0.00,,,-99.99,VWS V12.07,2013-10-11 19:15:00,
2013-10-11 14:20:00,69.2,54.7,29.56,SSE,158,0.0,0.0,60,0.00,,,-99.99,VWS V12.07,2013-10-11 19:20:00,
2013-10-11 14:25:00,69.0,54.5,29.57,SSE,158,0.0,0.0,60,0.00,,,-99.99,VWS V12.07,2013-10-11 19:25:00,
2013-10-11 14:30:00,69.0,54.5,29.57,South,180,0.0,0.0,60,0.00,,,-99.99,VWS V12.07,2013-10-11 19:30:00,
2013-10-11 14:35:00,68.9,54.5,29.58,South,180,0.0,0.6,60,0.00,,,-99.99,VWS V12.07,2013-10-11 19:35:00,
2013-10-11 14:40:00,68.9,54.0,29.57,SSW,202,0.0,0.6,59,0.00,,,-99.99,VWS V12.07,2013-10-11 19:40:00,
2013-10-11 14:45:00,68.9,54.0,29.56,SSW,202,0.0,0.6,59,0.00,,,-99.99,VWS V12.07,2013-10-11 19:45:00,
2013-10-11 14:50:00,68.7,53.8,29.56,SSW,202,0.0,0.0,59,0.00,,,-99.99,VWS V12.07,2013-10-11 19:50:00,
2013-10-11 14:55:00,68.9,54.0,29.56,West,270,0.0,0.0,59,0.00,,,-99.99,VWS V12.07,2013-10-11 19:55:00,
2013-10-11 15:00:00,68.9,54.0,29.56,SW,225,0.0,0.0,59,0.00,,,-99.99,VWS V12.07,2013-10-11 20:00:00,
2013-10-11 15:05:00,68.7,53.8,29.56,SW,225,0.0,0.0,59,0.00,,,-99.99,VWS V12.07,2013-10-11 20:05:00,
2013-10-11 15:10:00,68.9,54.0,29.57,SSE,158,5.1,5.1,59,0.00,,,-99.99,VWS V12.07,2013-10-11 20:10:00,
2013-10-11 15:15:00,68.9,53.5,29.56,SW,225,0.0,5.1,58,0.00,,,-99.99,VWS V12.07,2013-10-11 20:15:00,
2013-10-11 15:20:00,68.7,53.3,29.56,NNE,22,5.3,5.3,58,0.00,,,-99.99,VWS V12.07,2013-10-11 20:20:00,
2013-10-11 15:25:00,68.7,53.3,29.55,SSW,202,0.0,5.3,58,0.00,,,-99.99,VWS V12.07,2013-10-11 20:25:00,
2013-10-11 15:30:00,68.9,53.5,29.55,SSW,202,0.0,5.3,58,0.00,,,-99.99,VWS V12.07,2013-10-11 20:30:00,
2013-10-11 15:35:00,68.7,53.3,29.55,ESE,112,0.0,0.0,58,0.00,,,-99.99,VWS V12.07,2013-10-11 20:35:00,
2013-10-11 15:40:00,68.7,53.3,29.55,SSW,202,0.0,0.0,58,0.00,,,-99.99,VWS V12.07,2013-10-11 20:40:00,
2013-10-11 15:45:00,68.7,53.3,29.55,SW,225,0.0,2.6,58,0.00,,,-99.99,VWS V12.07,2013-10-11 20:45:00,
2013-10-11 15:50:00,68.9,53.5,29.54,SSW,202,0.0,0.0,58,0.00,,,-99.99,VWS V12.07,2013-10-11 20:50:00,
2013-10-11 15:55:00,69.0,53.6,29.54,SW,225,0.0,0.0,58,0.00,,,-99.99,VWS V12.07,2013-10-11 20:55:00,
2013-10-11 16:00:00,69.0,53.6,29.54,SW,225,0.0,0.0,58,0.00,,,-99.99,VWS V12.07,2013-10-11 21:00:00,
2013-10-11 16:05:00,69.2,54.3,29.53,NE,45,2.4,2.4,59,0.00,,,-99.99,VWS V12.07,2013-10-11 21:05:00,
2013-10-11 16:10:00,69.2,54.3,29.53,NE,45,5.5,5.5,59,0.00,,,-99.99,VWS V12.07,2013-10-11 21:10:00,
2013-10-11 16:15:00,69.2,54.3,29.52,NE,45,0.0,5.5,59,0.00,,,-99.99,VWS V12.07,2013-10-11 21:15:00,
2013-10-11 16:20:00,69.4,54.5,29.53,ENE,68,0.0,0.0,59,0.00,,,-99.99,VWS V12.07,2013-10-11 21:20:00,
2013-10-11 16:25:00,69.4,54.5,29.53,ENE,68,0.0,0.0,59,0.00,,,-99.99,VWS V12.07,2013-10-11 21:25:00,
2013-10-11 16:30:00,69.4,54.5,29.52,NW,315,0.0,0.0,59,0.00,,,-99.99,VWS V12.07,2013-10-11 21:30:00,
2013-10-11 16:35:00,68.7,54.3,29.53,SE,135,0.0,0.0,60,0.00,,,-99.99,VWS V12.07,2013-10-11 21:35:00,
2013-10-11 16:40:00,68.5,54.1,29.53,NE,45,0.0,0.0,60,0.00,,,-99.99,VWS V12.07,2013-10-11 21:40:00,
2013-10-11 16:45:00,68.1,53.7,29.54,NE,45,0.0,0.0,60,0.00,,,-99.99,VWS V12.07,2013-10-11 21:45:00,
2013-10-11 16:50:00,67.6,53.7,29.53,ESE,112,0.0,0.0,61,0.00,,,-99.99,VWS V12.07,2013-10-11 21:50:00,
2013-10-11 16:55:00,67.2,53.8,29.53,North,0,0.0,0.0,62,0.00,,,-99.99,VWS V12.07,2013-10-11 21:55:00,
2013-10-11 17:00:00,66.9,53.5,29.53,North,0,0.0,0.0,62,0.00,,,-99.99,VWS V12.07,2013-10-11 22:00:00,
2013-10-11 17:05:00,66.7,53.3,29.53,NNE,22,0.0,0.0,62,0.00,,,-99.99,VWS V12.07,2013-10-11 22:05:00,
2013-10-11 17:10:00,66.3,53.3,29.53,ENE,68,0.0,0.0,63,0.00,,,-99.99,VWS V12.07,2013-10-11 22:10:00,
2013-10-11 17:15:00,66.3,53.3,29.53,SSW,202,0.0,0.0,63,0.00,,,-99.99,VWS V12.07,2013-10-11 22:15:00,
2013-10-11 17:20:00,66.0,53.1,29.53,SSE,158,0.0,0.0,63,0.00,,,-99.99,VWS V12.07,2013-10-11 22:20:00,
2013-10-11 17:25:00,66.0,53.5,29.53,NNE,22,0.0,0.0,64,0.00,,,-99.99,VWS V12.07,2013-10-11 22:25:00,
2013-10-11 17:30:00,66.0,53.5,29.53,SSE,158,0.0,0.0,64,0.00,,,-99.99,VWS V12.07,2013-10-11 22:30:00,
2013-10-11 17:35:00,65.8,53.3,29.52,SSE,158,0.0,0.0,64,0.00,,,-99.99,VWS V12.07,2013-10-11 22:35:00,
2013-10-11 17:40:00,65.4,52.9,29.53,SSW,202,0.0,0.0,64,0.00,,,-99.99,VWS V12.07,2013-10-11 22:40:00,
2013-10-11 17:45:00,65.3,53.2,29.53,South,180,0.0,0.0,65,0.00,,,-99.99,VWS V12.07,2013-10-11 22:45:00,
2013-10-11 17:50:00,65.1,53.1,29.53,SSW,202,0.0,0.0,65,0.00,,,-99.99,VWS V12.07,2013-10-11 22:50:00,
2013-10-11 17:55:00,64.7,53.1,29.53,WSW,248,0.0,0.0,66,0.00,,,-99.99,VWS V12.07,2013-10-11 22:55:00,
2013-10-11 18:00:00,64.5,52.9,29.53,WSW,248,0.0,0.0,66,0.00,,,-99.99,VWS V12.07,2013-10-11 23:00:00,
2013-10-11 18:05:00,64.2,52.6,29.53,WSW,248,0.0,0.0,66,0.00,,,-99.99,VWS V12.07,2013-10-11 23:05:00,
2013-10-11 18:10:00,64.0,52.4,29.53,ENE,68,0.0,0.0,66,0.00,,,-99.99,VWS V12.07,2013-10-11 23:10:00,
2013-10-11 18:15:00,63.6,52.5,29.53,ENE,68,0.0,0.0,67,0.00,,,-99.99,VWS V12.07,2013-10-11 23:15:00,
2013-10-11 18:20:00,63.3,52.6,29.52,SE,135,0.0,4.2,68,0.00,,,-99.99,VWS V12.07,2013-10-11 23:20:00,
2013-10-11 18:25:00,63.1,52.4,29.52,ENE,68,0.0,4.2,68,0.00,,,-99.99,VWS V12.07,2013-10-11 23:25:00,
2013-10-11 18:30:00,62.9,52.2,29.52,ENE,68,0.0,4.2,68,0.00,,,-99.99,VWS V12.07,2013-10-11 23:30:00,
2013-10-11 18:35:00,62.6,52.3,29.52,ENE,68,0.0,0.0,69,0.00,,,-99.99,VWS V12.07,2013-10-11 23:35:00,
2013-10-11 18:40:00,62.4,52.5,29.53,SSW,202,0.0,0.0,70,0.00,,,-99.99,VWS V12.07,2013-10-11 23:40:00,
2013-10-11 18:45:00,62.4,52.5,29.53,SSW,202,0.0,0.0,70,0.00,,,-99.99,VWS V12.07,2013-10-11 23:45:00,
2013-10-11 18:50:00,62.0,52.1,29.53,SSW,202,0.0,0.0,70,0.00,,,-99.99,VWS V12.07,2013-10-11 23:50:00,
2013-10-11 18:55:00,61.8,52.3,29.53,SW,225,0.0,0.0,71,0.00,,,-99.99,VWS V12.07,2013-10-11 23:55:00,
2013-10-11 19:00:00,61.7,52.2,29.53,South,180,0.0,0.0,71,0.00,,,-99.99,VWS V12.07,2013-10-12 00:00:00,
2013-10-11 19:05:00,61.5,52.0,29.53,South,180,0.0,0.0,71,0.00,,,-99.99,VWS V12.07,2013-10-12 00:05:00,
2013-10-11 19:10:00,61.5,52.4,29.53,SW,225,0.8,0.8,72,0.00,,,-99.99,VWS V12.07,2013-10-12 00:10:00,
2013-10-11 19:15:00,61.5,52.4,29.53,WSW,248,1.3,1.3,72,0.00,,,-99.99,VWS V12.07,2013-10-12 00:15:00,
2013-10-11 19:20:00,61.3,52.2,29.53,SSE,158,0.0,0.0,72,0.00,,,-99.99,VWS V12.07,2013-10-12 00:20:00,
2013-10-11 19:25:00,61.1,52.0,29.53,SSW,202,0.0,0.0,72,0.00,,,-99.99,VWS V12.07,2013-10-12 00:25:00,
2013-10-11 19:30:00,60.9,52.2,29.54,WNW,292,0.0,0.0,73,0.00,,,-99.99,VWS V12.07,2013-10-12 00:30:00,
2013-10-11 19:35:00,60.6,51.9,29.54,SSE,158,0.0,0.0,73,0.00,,,-99.99,VWS V12.07,2013-10-12 00:35:00,
2013-10-11 19:40:00,60.6,51.9,29.54,SSW,202,4.2,4.2,73,0.00,,,-99.99,VWS V12.07,2013-10-12 00:40:00,
2013-10-11 19:45:00,60.4,51.7,29.54,SW,225,0.0,4.2,73,0.00,,,-99.99,VWS V12.07,2013-10-12 00:45:00,
2013-10-11 19:50:00,60.0,51.3,29.54,SSW,202,5.1,5.1,73,0.00,,,-99.99,VWS V12.07,2013-10-12 00:50:00,
2013-10-11 19:55:00,60.0,51.3,29.54,SSE,158,0.0,5.1,73,0.00,,,-99.99,VWS V12.07,2013-10-12 00:55:00,
2013-10-11 20:00:00,59.9,51.2,29.54,NE,45,1.3,5.1,73,0.00,,,-99.99,VWS V12.07,2013-10-12 01:00:00,
2013-10-11 20:05:00,59.7,51.0,29.54,WNW,292,0.0,0.0,73,0.00,,,-99.99,VWS V12.07,2013-10-12 01:05:00,
2013-10-11 20:10:00,59.5,50.8,29.54,SSW,202,0.0,0.0,73,0.00,,,-99.99,VWS V12.07,2013-10-12 01:10:00,
2013-10-11 20:15:00,59.3,50.7,29.55,SW,225,0.0,1.3,73,0.00,,,-99.99,VWS V12.07,2013-10-12 01:15:00,
2013-10-11 20:20:00,59.1,50.5,29.55,SW,225,0.0,1.5,73,0.00,,,-99.99,VWS V12.07,2013-10-12 01:20:00,
2013-10-11 20:25:00,59.0,50.4,29.55,NW,315,0.0,1.5,73,0.00,,,-99.99,VWS V12.07,2013-10-12 01:25:00,
2013-10-11 20:30:00,58.8,50.2,29.55,North,0,0.0,1.5,73,0.00,,,-99.99,VWS V12.07,2013-10-12 01:30:00,
2013-10-11 20:35:00,58.8,50.2,29.55,SSW,202,0.0,0.8,73,0.00,,,-99.99,VWS V12.07,2013-10-12 01:35:00,
2013-10-11 20:40:00,58.8,50.2,29.55,SSW,202,0.2,0.8,73,0.00,,,-99.99,VWS V12.07,2013-10-12 01:40:00,
2013-10-11 20:45:00,58.8,50.2,29.54,SE,135,0.0,1.3,73,0.00,,,-99.99,VWS V12.07,2013-10-12 01:45:00,
2013-10-11 20:50:00,58.6,50.0,29.55,ESE,112,1.5,1.5,73,0.00,,,-99.99,VWS V12.07,2013-10-12 01:50:00,
2013-10-11 20:55:00,58.6,50.0,29.55,SE,135,0.0,3.8,73,0.00,,,-99.99,VWS V12.07,2013-10-12 01:55:00,
2013-10-11 21:00:00,58.6,50.0,29.54,SSW,202,2.9,3.8,73,0.00,,,-99.99,VWS V12.07,2013-10-12 02:00:00,
2013-10-11 21:05:00,58.2,49.6,29.54,SSW,202,0.0,1.5,73,0.00,,,-99.99,VWS V12.07,2013-10-12 02:05:00,
2013-10-11 21:10:00,58.2,49.6,29.55,NE,45,0.0,1.5,73,0.00,,,-99.99,VWS V12.07,2013-10-12 02:10:00,
2013-10-11 21:15:00,58.2,49.6,29.55,East,90,0.8,4.0,73,0.00,,,-99.99,VWS V12.07,2013-10-12 02:15:00,
2013-10-11 21:20:00,58.1,49.5,29.54,West,270,0.0,0.0,73,0.00,,,-99.99,VWS V12.07,2013-10-12 02:20:00,
2013-10-11 21:25:00,58.1,49.5,29.54,West,270,0.0,0.0,73,0.00,,,-99.99,VWS V12.07,2013-10-12 02:25:00,
2013-10-11 21:30:00,58.1,49.5,29.54,SSW,202,0.0,0.6,73,0.00,,,-99.99,VWS V12.07,2013-10-12 02:30:00,
2013-10-11 21:35:00,58.1,49.5,29.54,SE,135,1.1,1.1,73,0.00,,,-99.99,VWS V12.07,2013-10-12 02:35:00,
2013-10-11 21:40:00,58.1,49.5,29.54,WSW,248,2.2,2.2,73,0.00,,,-99.99,VWS V12.07,2013-10-12 02:40:00,
2013-10-11 21:45:00,57.9,49.3,29.54,SSW,202,0.0,5.3,73,0.00,,,-99.99,VWS V12.07,2013-10-12 02:45:00,
2013-10-11 21:50:00,57.9,49.3,29.54,South,180,2.4,2.4,73,0.00,,,-99.99,VWS V12.07,2013-10-12 02:50:00,
2013-10-11 21:55:00,57.7,49.1,29.53,South,180,0.0,2.4,73,0.00,,,-99.99,VWS V12.07,2013-10-12 02:55:00,
2013-10-11 22:00:00,57.7,49.1,29.53,South,180,2.4,2.4,73,0.00,,,-99.99,VWS V12.07,2013-10-12 03:00:00,
2013-10-11 22:05:00,57.5,48.9,29.53,SSW,202,0.0,0.0,73,0.00,,,-99.99,VWS V12.07,2013-10-12 03:05:00,
2013-10-11 22:10:00,57.3,48.7,29.53,SSE,158,0.0,0.0,73,0.00,,,-99.99,VWS V12.07,2013-10-12 03:10:00,
2013-10-11 22:15:00,57.3,48.7,29.53,NW,315,0.0,2.4,73,0.00,,,-99.99,VWS V12.07,2013-10-12 03:15:00,
2013-10-11 22:20:00,57.3,48.7,29.53,SE,135,0.0,0.0,73,0.00,,,-99.99,VWS V12.07,2013-10-12 03:20:00,
2013-10-11 22:25:00,57.0,48.4,29.52,SSE,158,0.0,1.1,73,0.00,,,-99.99,VWS V12.07,2013-10-12 03:25:00,
2013-10-11 22:30:00,57.0,48.4,29.52,SSW,202,0.0,1.1,73,0.00,,,-99.99,VWS V12.07,2013-10-12 03:30:00,
2013-10-11 22:35:00,57.0,48.1,29.52,SW,225,0.0,1.1,72,0.00,,,-99.99,VWS V12.07,2013-10-12 03:35:00,
2013-10-11 22:40:00,57.0,48.1,29.52,SW,225,0.0,1.1,72,0.00,,,-99.99,VWS V12.07,2013-10-12 03:40:00,
2013-10-11 22:50:00,57.0,48.1,29.52,SW,225,3.1,3.1,72,0.00,,,-99.99,VWS V12.07,2013-10-12 03:50:00,
2013-10-11 22:55:00,57.0,48.1,29.52,South,180,0.0,3.1,72,0.00,,,-99.99,VWS V12.07,2013-10-12 03:55:00,
2013-10-11 23:00:00,57.0,48.1,29.52,South,180,4.6,4.6,72,0.00,,,-99.99,VWS V12.07,2013-10-12 04:00:00,
2013-10-11 23:05:00,56.8,47.9,29.52,ESE,112,1.5,1.5,72,0.00,,,-99.99,VWS V12.07,2013-10-12 04:05:00,
2013-10-11 23:10:00,56.8,47.9,29.52,SW,225,0.4,1.5,72,0.00,,,-99.99,VWS V12.07,2013-10-12 04:10:00,
2013-10-11 23:15:00,56.8,47.9,29.52,North,0,0.0,3.8,72,0.00,,,-99.99,VWS V12.07,2013-10-12 04:15:00,
2013-10-11 23:20:00,56.8,47.9,29.52,SSW,202,0.0,0.0,72,0.00,,,-99.99,VWS V12.07,2013-10-12 04:20:00,
2013-10-11 23:25:00,56.8,47.9,29.52,South,180,0.0,0.0,72,0.00,,,-99.99,VWS V12.07,2013-10-12 04:25:00,
2013-10-11 23:30:00,56.8,47.9,29.52,SSW,202,0.0,0.0,72,0.00,,,-99.99,VWS V12.07,2013-10-12 04:30:00,
2013-10-11 23:35:00,56.6,47.7,29.52,SSW,202,0.0,0.0,72,0.00,,,-99.99,VWS V12.07,2013-10-12 04:35:00,
2013-10-11 23:40:00,56.4,47.5,29.51,SW,225,0.0,0.0,72,0.00,,,-99.99,VWS V12.07,2013-10-12 04:40:00,
2013-10-11 23:45:00,56.4,47.5,29.51,SW,225,0.0,3.1,72,0.00,,,-99.99,VWS V12.07,2013-10-12 04:45:00,
2013-10-11 23:50:00,56.4,47.5,29.51,SSW,202,0.0,0.0,72,0.00,,,-99.99,VWS V12.07,2013-10-12 04:50:00,
2013-10-11 23:55:00,56.4,47.5,29.51,South,180,2.2,2.4,72,0.00,,,-99.99,VWS V12.07,2013-10-12 04:55:00,